Regional Weather Roundup
Issued by NWS Charleston, SC

Current Version | Previous Version | Text Only | Print | Product List | Glossary Off
Versions: 1 2 3 4 5 6 7 8 9 10 11 12 13 14 15 16 17 18 19 20 21 22 23 24 25 26 27 28 29 30 31 32 33 34 35 36 37 38 39 40 41 42 43 44 45 46 47 48 49 50

000
ASUS42 KCHS 221910
RWRCHS

REGIONAL WEATHER ROUNDUP
NATIONAL WEATHER SERVICE CHARLESTON SC
300 PM EDT MON SEP 22 2014

NOTE: "FAIR" INDICATES FEW OR NO CLOUDS BELOW 12,000 FEET WITH NO
SIGNIFICANT WEATHER AND/OR OBSTRUCTIONS TO VISIBILITY.

NOT ALL STATIONS ARE QUALITY CONTROLLED BY THE NATIONAL
WEATHER SERVICE. USE DATA WITH CAUTION...ESPECIALLY
DEWPOINT OBSERVATIONS.

SCZ027-030-031-034>040-042>050-222000-
...SOUTH CAROLINA...

CITY           SKY/WX    TMP DP  RH WIND       PRES   REMARKS
N CHARLESTON   MOSUNNY   88  66  48 S6        29.97F HX  90
WATERFRONT PRK NOT AVBL
FORT JOHNSON   NOT AVBL
MOUNT PLEASANT FAIR      84  70  61 S8        29.98F
JOHNS ISLAND   PTCLDY    84  73  70 S13       29.98F HX  91
PINOPOLIS        N/A     81  70  69 N10       29.92R
MONCKS CORNER    N/A     84  72  65 N6        29.98F
SUMMERVILLE    MOCLDY    82  70  65 N5        29.98F
BEAUFORT MCAS  PTSUNNY   87  68  52 SW5       29.97F HX  90
BEAUFORT ARPT  FAIR      86  70  58 S5        29.97F HX  90
HILTON HEAD IS MOSUNNY   84  68  58 S7        29.99F
GEORGETOWN     NOT AVBL
WALTERBORO     MOCLDY    84  64  51 E6        29.97F
ORANGEBURG     LGT RAIN  72  64  76 N3        30.03F
BARNWELL       DRIZZLE   66  64  94 NE7       30.04S
AIKEN          MOCLDY    70  63  78 N8        30.07F
MANNING        MOCLDY    73  68  83 N6        30.02S
KINGSTREE      NOT AVBL
COLUMBIA       CLOUDY    75  55  49 N3        30.03F
SUMTER         LGT RAIN  74  61  63 NW7       30.03R
FLORENCE       PTSUNNY   79  58  48 NE8       30.02S
MYRTLE BEACH   PTSUNNY   79  61  53 N12       30.01S
N MYRTLE BEACH PTSUNNY   77  63  61 N6        30.01S

$$

GAZ063-065-086>088-099>101-113>116-118-119-134-136>141-150-222000-
...GEORGIA...

CITY           SKY/WX    TMP DP  RH WIND       PRES   REMARKS
SAVANNAH ARPT  MOSUNNY   90  65  43 SW10      29.96F HX  92
HUNTER AAF     SUNNY     87  65  49 VRB6      29.95F
FORT STEWART   PTSUNNY   88  63  43 SW9       29.95F
STATESBORO     NOT AVBL
SYLVANIA       CLOUDY    90  74  60 CALM      29.98F HX  99
CLAXTON        FAIR      90  70  51 W6        29.96F HX  95
THOMSON        CLOUDY    67  67 100 NE6       30.07F
AUGUSTA-BUSH   LGT RAIN  70  63  78 CALM      30.03F
AUGUSTA-DANIEL LGT RAIN  70  65  84 NW8       30.05F
SWAINSBORO     MOCLDY    77  77 100 N7        30.02F
VIDALIA        CLOUDY    81  70  69 N16G25    29.99S
ALMA           MOSUNNY   89  62  40 VRB3      29.98F
WAYCROSS       PTSUNNY   91  66  43 NE5       29.97F HX  93
JESUP          FAIR      90  64  43 W3        29.98F HX  91
BRUNSWICK      MOSUNNY   90  59  35 SE3       29.98F
SAINT SIMONS   SUNNY     86  66  51 SE14      29.98F

$$

SCZ027-028-034-036>038-045-046-048>050-GAZ119-141-222000-
...LAKE AND SUPPLEMENTAL COASTAL OBSERVATIONS...

STATION/POSITION TIME  TEMP    WIND        PRES    WAVE   SWELL
                       AIR SEA DIR/SP/G            HT/PER HT/PER/DIR
                 (UTC) (F)     (DEG/KT/KT) (MB)    (FT/S) (FT/S/D)
UPR LAKE MARION  NOT AVBL
WINYAH BAY       1800   79      70/ 10     1016.0S
LAKE MURRAY      1800   71     350/  2/  5 1016.9F
ACE BASIN NERRS  1800   86     190/  2     1016.0S
FORT PULASKI     1900   86     180/  6/ 10 1015.2F
SAPELO ISLAND    1800   88     280/  3     1017.0S

$$

ANZ835-935-AMZ111-154-330-350-352-354-374-450-454-472-222000-
...C-MAN AND BUOY OBSERVATIONS...

STATION/POSITION TIME  TEMP    WIND        PRES    WAVE   SWELL
                       AIR SEA DIR/SP/G            HT/PER HT/PER/DIR
                 (UTC) (F)     (DEG/KT/KT) (MB)    (FT/S) (FT/S/D)
FOLLY BEACH CMAN 1800   80     180/  7/  8 1016.1F
BUOY 41004       1900   81 82  250/ 10/ 10 1015.3F   3/ 5   3/ 5
BUOY 41008       1900   82 83  200/  8/ 10 1015.8F   2/ 9   2/ 90/ 9
5E ST. MARYS GA  1900      84                N/A     2/ 8
FRYING PAN BUOY  NOT AVBL
BUOY 41025       1900   76     360/ 12/ 16 1015.6S   4/ 8   3/130/ 8
CAPE LOOKOUT NC  1800   79      20/  9/ 11 1015.6F
BUOY 41002       1842   80 81  230/  6/  8 1017.4F   4/ 7   3/120/ 7
BUOY 41010       1900   78 84   80/ 12/ 14 1016.7F   4/ 9   3/ 40/ 9
BUOY 41012       NOT AVBL
ST AUGUSTINE FL  1900   81     110/  9/ 10 1016.1F
CAPERS NEARSHORE NOT AVBL
FRIPP NEARSHORE  NOT AVBL


$$



USA.gov is the U.S. government's official web portal to all federal, state and local government web resources and services.